STARLINK-32624

Last updated on Thu Nov 21 2024 00:02:06 GMT+0000 (Coordinated Universal Time)

1 61926U 24207Q 24325.58335648 -.00817487 20851-3 -24209-2 0 9992 2 61926 43.0025 96.5224 0001777 290.4874 130.8132 15.91591378 2609
UTC large
Height (km)
Speed (km/s)
/
Latitude / Longitude
Inclination (degrees)
Orbital Period (minutes)
Azimuth
Elevation
Range (km)
Doppler Factor

Next 0 passes for location: London (51.5072 / 0.1276)

Sorry there are no passes over London.